[[{"header":{"parameterUnit":"m.s-1","parameterCategory":1,"la1":30.2992,"la2":30.254,"lo1":-89.0895,"lo2":-89.0443,"dy":0.0025,"dx":0.0025,"nx":19,"ny":19,"refTime":"2026-05-02T21:00:00:Z","depth":0,"parameterNumber":2,"parameterNumberName":"U-component_of_WINDS"},"data":[0,0,0,0.0487,0.0488,0.0538,0.0538,0.0586,0.0586,0,0,0,0,0,0,0,0,0,0,0,0.0463,0.0463,0.0487,0.0488,0.0538,0.0538,0.0586,0.0586,0,0,0,0,0,0,0,0,0,0,0,0.0463,0.0463,0.0463,0.0488,0.0538,0.0538,0.0586,0.0554,0,0,0,0,0,0,0,0,0,0,0.0508,0.0477,0.0463,0.0463,0.0488,0.0538,0.0538,0.0553,0.0556,0.0557,0,0.0556,0,0.0572,0.0589,0.0589,0,0,0,0.0495,0.0474,0.0496,0.0463,0.0489,0.0537,0.0517,0.0555,0.0558,0.0561,0.0557,0.0559,0.0573,0.0589,0.0589,0.0574,0.0574,0,0,0.0492,0.0467,0.0494,0.0498,0.049,0.0516,0.0519,0.0557,0.055,0.0557,0.056,0.0573,0.0589,0.0589,0.0575,0.0574,0,0,0,0.048,0.0465,0.0486,0.0496,0.0506,0.0517,0.052,0.0549,0.0558,0.0561,0.0574,0.0589,0.059,0.0575,0.0574,0.0531,0,0,0,0.0478,0.0458,0.0485,0.047,0.0505,0.0528,0.0511,0.0555,0.056,0.0574,0.0589,0.059,0.0576,0.0575,0.0533,0.0514,0,0,0,0.0463,0.0456,0.046,0.0468,0.0489,0.0528,0.0539,0.0557,0.0568,0.0589,0.059,0.0576,0.0575,0.0535,0.0517,0.0502,0,0,0,0.044,0.042,0.0459,0.0443,0.0488,0.0501,0.0539,0.055,0.0563,0.0589,0.0576,0.0575,0.0535,0.0519,0.0504,0.0483,0.0473,0,0,0.0401,0.0415,0.0408,0.0444,0.0443,0.0495,0.0489,0.0524,0.0549,0.0564,0.0564,0.0532,0.0517,0.0502,0.0426,0.0418,0,0,0,0.0387,0.0381,0.0387,0.0398,0.0425,0.0446,0.0486,0.0499,0.0514,0.0552,0.0524,0.0516,0.0508,0.05,0.0492,0.0487,0.057,0.057,0.057,0.0296,0.0329,0.0319,0.0359,0.0369,0.0411,0.0422,0.0447,0.0477,0.047,0.0474,0.0425,0.0414,0.0409,0.0402,0.0468,0.0468,0.0468,0.0468,0.0242,0.0238,0.028,0.0285,0.0321,0.0325,0.0365,0.0386,0.0395,0.0424,0.0419,0.0446,0.0398,0.0395,0.0465,0.0465,0.0466,0.0466,0.0466,0.0184,0.0189,0.0206,0.0226,0.0238,0.028,0.0287,0.0319,0.035,0.0345,0.0352,0.0353,0.0357,0.0347,0.0346,0.0346,0.0346,0.0346,0.0346,0.0117,0.0138,0.014,0.0168,0.018,0.02,0.0242,0.0255,0.0277,0.03,0.03,0.033,0.0388,0.0401,0.0343,0.0344,0.0344,0.0344,0.0345,0.0047,0.0068,0.0071,0.0083,0.0119,0.0128,0.0171,0.0194,0.0209,0.0212,0.0244,0.0282,0.0297,0.0303,0.0314,0.0238,0.0238,0.0238,0.0238,-0.0003,0.0009,0.0019,0.0036,0.0057,0.0096,0.0098,0.0131,0.0168,0.018,0.0196,0.0214,0.0219,0.0232,0.0239,0.025,0.0158,0.0158,0.0158,-0.0045,-0.0029,-0.0034,0.0003,0.0034,0.006,0.0063,0.008,0.0128,0.0156,0.0189,0.0193,0.0222,0.023,0.0256,0.0267,0.0287,0,0]},{"header":{"parameterUnit":"m.s-1","parameterCategory":1,"la1":30.2992,"la2":30.254,"lo1":-89.0895,"lo2":-89.0443,"dy":0.0025,"dx":0.0025,"nx":19,"ny":19,"refTime":"2026-05-02T21:00:00:Z","depth":0,"parameterNumber":3,"parameterNumberName":"V-component_of_WINDS"},"data":[0,0,0,-7.8138,-7.814,-7.8237,-7.8237,-7.8367,-7.8369,0,0,0,0,0,0,0,0,0,0,0,-7.8116,-7.8117,-7.8138,-7.814,-7.8237,-7.8237,-7.8367,-7.8369,0,0,0,0,0,0,0,0,0,0,0,-7.8115,-7.8116,-7.8118,-7.8141,-7.8237,-7.8237,-7.8367,-7.8291,0,0,0,0,0,0,0,0,0,0,-7.8196,-7.8182,-7.8116,-7.8118,-7.8141,-7.8237,-7.8237,-7.8287,-7.8296,-7.8328,0,-7.836,0,-7.8367,-7.8378,-7.8379,0,0,0,-7.8134,-7.8175,-7.8196,-7.8118,-7.8142,-7.8236,-7.8191,-7.8292,-7.8302,-7.8339,-7.8362,-7.8366,-7.8369,-7.8379,-7.838,-7.859,-7.8591,0,0,-7.8129,-7.8136,-7.8189,-7.8202,-7.8191,-7.8188,-7.8195,-7.8298,-7.8321,-7.8362,-7.8369,-7.8371,-7.838,-7.8381,-7.8589,-7.8591,0,0,0,-7.8118,-7.8132,-7.815,-7.8197,-7.8215,-7.8191,-7.8198,-7.8317,-7.8322,-7.837,-7.8373,-7.8381,-7.8383,-7.8588,-7.859,-7.866,0,0,0,-7.8114,-7.8126,-7.8148,-7.8153,-7.8213,-7.8267,-7.8216,-7.8315,-7.8327,-7.8372,-7.8381,-7.8384,-7.8586,-7.8589,-7.8655,-7.8692,0,0,0,-7.8107,-7.8125,-7.8141,-7.8153,-7.8195,-7.8266,-7.8277,-7.8317,-7.8328,-7.8379,-7.8384,-7.8585,-7.8588,-7.8651,-7.8685,-7.8751,0,0,0,-7.81,-7.82,-7.8142,-7.8255,-7.8195,-7.831,-7.8276,-7.836,-7.8412,-7.8382,-7.8586,-7.8589,-7.865,-7.868,-7.8746,-7.8809,-7.8835,0,0,-7.823,-7.8216,-7.8281,-7.8233,-7.836,-7.8294,-7.8431,-7.847,-7.8466,-7.8548,-7.8554,-7.8657,-7.8684,-7.875,-7.898,-7.9001,0,0,0,-7.8324,-7.8372,-7.8404,-7.8456,-7.849,-7.8523,-7.8541,-7.8556,-7.8626,-7.8511,-7.8698,-7.8714,-7.8752,-7.8782,-7.88,-7.8832,-7.8603,-7.8603,-7.8603,-7.8516,-7.851,-7.8618,-7.8625,-7.8675,-7.8695,-7.8734,-7.8757,-7.8732,-7.8777,-7.8802,-7.8943,-7.8977,-7.8991,-7.9025,-7.8833,-7.8834,-7.8834,-7.8834,-7.8705,-7.8772,-7.8742,-7.8837,-7.8829,-7.8907,-7.893,-7.8911,-7.8982,-7.8923,-7.8956,-7.8893,-7.9014,-7.9044,-7.8839,-7.8838,-7.8838,-7.8837,-7.8837,-7.883,-7.8862,-7.8881,-7.8957,-7.9015,-7.9017,-7.9088,-7.9077,-7.9067,-7.91,-7.9125,-7.9124,-7.9122,-7.9113,-7.9113,-7.9114,-7.9114,-7.9115,-7.9115,-7.8953,-7.8972,-7.9035,-7.9083,-7.9116,-7.9158,-7.918,-7.9211,-7.9243,-7.9229,-7.9229,-7.9202,-7.9028,-7.8985,-7.9123,-7.9121,-7.912,-7.9119,-7.9119,-7.9148,-7.9103,-7.9201,-7.9234,-7.929,-7.935,-7.9337,-7.9402,-7.9426,-7.9461,-7.9427,-7.93,-7.9284,-7.927,-7.9234,-7.9428,-7.9428,-7.9428,-7.9428,-7.9255,-7.9247,-7.9345,-7.94,-7.9452,-7.9451,-7.956,-7.9578,-7.9589,-7.9603,-7.9574,-7.9525,-7.9511,-7.9503,-7.9484,-7.945,-7.9695,-7.9696,-7.9696,-7.9375,-7.9372,-7.9468,-7.9482,-7.9526,-7.9563,-7.9665,-7.9728,-7.973,-7.9706,-7.9615,-7.9603,-7.9525,-7.95,-7.9473,-7.9443,-7.9382,0,0]}]]